Home   Weather   Road Town   Past weeks

Flag for British Virgin Islands Past Weather in Road Town, Tortola, British Virgin Islands — Yesterday and Last 2 Weeks

Now
79 °F

Mostly cloudy.


Feels Like: 82 °F
Forecast: 76 / 80 °F
Wind: 17 mph from East

Location: Cyril E. King International Airport

Current Time: Apr 24, 2017 at 2:02:20 am

Latest Report: Apr 24, 2017 at 12:53 am


Visibility: 10 mi

Pressure: 29.96 "Hg

Humidity: 82%

Dew Point: 73 °F

Location of Road TownLocation

Past Weather in Road Town — Graph

°F

Road Town Temperature Yesterday

Maximum temperature yesterday: 84 °F (at 10:53 am)
Minimum temperature yesterday: 76 °F (at 12:53 am)
Average temperature yesterday: 80 °F

High & Low Weather Summary for the Past Weeks

 TemperatureHumidityPressure
High86 °F (Apr 17, 11:53 am)100% (Apr 13, 3:53 am)30.07 "Hg (Apr 13, 3:53 am)
Low72 °F (Apr 13, 3:53 am)49% (Apr 19, 3:53 pm)29.88 "Hg (Apr 12, 3:53 pm)
Average79 °F76%29.97 "Hg
* Reported Apr 9 12:53 am — Apr 24 12:53 am, Road Town, Weather by CustomWeather, © 2017

Note: Actual official high and low records may vary slightly from our data, if they occured in-between our weather recording intervals... More about our weather records

Advertising

Road Town Weather History for the Previous 24 Hours

Scroll right to see more
 ConditionsComfort  
Time TempWeatherWind HumidityBarometerVisibility
12:53 am
Mon, Apr 24
79 °FMostly cloudy.17 mph82%29.96 "Hg10 mi
11:53 pm
Sun, Apr 23
79 °FPassing clouds.14 mph82%29.98 "Hg10 mi
10:53 pm80 °FPassing clouds.14 mph79%29.99 "Hg10 mi
9:53 pm80 °FPassing clouds.14 mph79%29.98 "Hg10 mi
8:53 pm80 °FClear.16 mph79%29.97 "Hg10 mi
7:53 pm80 °FClear.16 mph76%29.95 "Hg10 mi
6:53 pm80 °FOvercast.16 mph76%29.93 "Hg10 mi
5:53 pm81 °FOvercast.17 mph74%29.92 "Hg10 mi
4:53 pm82 °FPartly sunny.18 mph72%29.91 "Hg10 mi
3:53 pm82 °FScattered clouds.17 mph72%29.92 "Hg10 mi
2:53 pm83 °FPassing clouds.16 mph70%29.93 "Hg10 mi
1:53 pm84 °FSunny.18 mph67%29.95 "Hg10 mi
12:53 pm84 °FSunny.18 mph65%29.97 "Hg10 mi
11:53 am84 °FSunny.17 mph61%29.99 "Hg10 mi
10:53 am84 °FSunny.17 mph59%30.00 "Hg10 mi
9:53 am83 °FPassing clouds.16 mph61%30.00 "Hg10 mi
8:53 am81 °FSunny.17 mph62%29.99 "Hg10 mi
7:53 am79 °FSunny.13 mph72%29.99 "Hg10 mi
6:53 am78 °FSunny.14 mph71%29.97 "Hg10 mi
5:53 am77 °FClear.10 mph71%29.95 "Hg10 mi
4:53 am77 °FClear.14 mph74%29.94 "Hg10 mi
3:53 am77 °FClear.12 mph77%29.93 "Hg10 mi
2:53 am77 °FClear.13 mph74%29.94 "Hg10 mi
Weather by CustomWeather, © 2017

See weather overviewHow to use our weather pages